GW3887 Weather Reports


time (UTC)temp
C
wind
direction
speed
KPH
gust
KPH
rain 1hr
cm
rain 24hr
cm
rain mn
cm
humidity
%
barometer
mb
20260507015452 26 68 0.0 0.0 0.00 0.00 0.00 51 994.7
20260507014949 26 71 0.0 0.0 0.00 0.00 0.00 52 994.7
20260507014445 26 76 0.0 0.0 0.00 0.00 0.00 53 994.7
20260507013941 26 64 0.0 0.0 0.00 0.00 0.00 53 994.7
20260507013438 26 93 4.8 8.0 0.00 0.00 0.00 54 994.7
20260507012935 26 59 6.4 8.0 0.00 0.00 0.00 53 994.7
20260507012432 26 109 0.0 0.0 0.00 0.00 0.00 52 994.4
20260507011928 26 92 0.0 0.0 0.00 0.00 0.00 51 994.7
20260507011425 26 78 0.0 0.0 0.00 0.00 0.00 51 994.7
20260507010920 26 89 1.6 4.8 0.00 0.00 0.00 50 994.7
20260507010415 26 71 4.8 8.0 0.00 0.00 0.00 50 994.7
20260507005913 26 93 0.0 4.8 0.00 0.00 0.00 51 994.4
20260507005409 27 80 4.8 8.0 0.00 0.00 0.00 51 994.4
20260507004906 27 67 3.2 4.8 0.00 0.00 0.00 50 994.4
20260507004403 27 80 0.0 0.0 0.00 0.00 0.00 50 994.4
20260507003900 27 90 0.0 0.0 0.00 0.00 0.00 49 994.4
20260507003355 27 87 0.0 0.0 0.00 0.00 0.00 47 994.7
20260507002851 27 83 0.0 0.0 0.00 0.00 0.00 47 994.4
20260507002347 27 72 6.4 8.0 0.00 0.00 0.00 48 994.4
20260507001844 27 49 6.4 8.0 0.00 0.00 0.00 50 994.4
20260507001341 27 64 12.9 16.1 0.00 0.00 0.00 49 994.4
20260507000838 27 66 8.0 8.0 0.00 0.00 0.00 49 994.7
20260507000335 27 52 6.4 11.3 0.00 0.00 0.00 49 994.4
20260506235830 27 56 9.7 11.3 0.00 0.00 0.00 48 994.4
20260506235327 27 39 4.8 8.0 0.00 0.00 0.00 47 994.4
20260506234823 27 66 4.8 8.0 0.00 0.00 0.00 47 994.4
20260506234321 27 70 4.8 4.8 0.00 0.00 0.00 44 994.1
20260506233818 27 67 6.4 8.0 0.00 0.00 0.00 46 994.4
20260506233314 27 71 0.0 0.0 0.00 0.00 0.00 47 994.4
20260506232811 27 72 4.8 8.0 0.00 0.00 0.00 46 994.4
20260506232306 27 276 4.8 8.0 0.00 0.00 0.00 46 994.4
20260506231803 27 78 0.0 0.0 0.00 0.00 0.00 51 994.4
20260506231301 27 57 4.8 8.0 0.00 0.00 0.00 52 994.4
20260506230758 27 25 0.0 0.0 0.00 0.00 0.00 48 994.4
20260506230255 27 69 1.6 4.8 0.00 0.00 0.00 45 994.4
20260506225751 27 61 0.0 0.0 0.00 0.00 0.00 46 994.4
20260506225248 27 67 0.0 0.0 0.00 0.00 0.00 42 994.4
20260506224739 28 62 1.6 4.8 0.00 0.00 0.00 42 994.1
20260506224237 28 59 8.0 11.3 0.00 0.00 0.00 41 994.4
20260506223732 28 68 1.6 4.8 0.00 0.00 0.00 42 994.4
20260506223228 28 85 6.4 8.0 0.00 0.00 0.00 42 994.4
20260506222725 28 58 4.8 8.0 0.00 0.00 0.00 42 994.1
20260506222221 29 91 4.8 8.0 0.00 0.00 0.00 42 994.4
20260506221719 30 71 1.6 4.8 0.00 0.00 0.00 43 994.4
20260506221217 30 59 9.7 11.3 0.00 0.00 0.00 43 994.4
20260506220714 30 98 9.7 11.3 0.00 0.00 0.00 42 994.4
20260506220208 30 96 9.7 11.3 0.00 0.00 0.00 31 994.4
20260506215705 30 288 1.6 4.8 0.00 0.00 0.00 30 994.4
20260506215201 28 177 3.2 4.8 0.00 0.00 0.00 32 994.7
20260506214658 28 188 8.0 11.3 0.00 0.00 0.00 37 994.4
20260506214155 27 206 9.7 11.3 0.00 0.00 0.00 39 994.7
20260506213654 27 195 14.5 16.1 0.00 0.00 0.00 39 994.4
20260506213150 27 204 9.7 11.3 0.00 0.00 0.00 40 994.4
20260506212647 27 226 12.9 16.1 0.00 0.00 0.00 41 994.7
20260506212142 27 217 11.3 16.1 0.00 0.00 0.00 48 994.7
20260506211638 27 235 16.1 24.1 0.00 0.00 0.00 48 994.7
20260506211135 27 280 22.5 27.4 0.00 0.00 0.00 47 995.1
20260506210632 27 268 12.9 16.1 0.00 0.00 0.00 47 995.1
20260506210129 27 227 11.3 11.3 0.00 0.00 0.00 43 995.1
20260506205626 27 185 14.5 24.1 0.00 0.00 0.00 45 995.1
20260506205120 27 177 16.1 19.3 0.00 0.00 0.00 45 995.1
20260506204618 27 208 16.1 19.3 0.00 0.00 0.00 45 995.1
20260506204115 27 222 19.3 24.1 0.00 0.00 0.00 46 995.4
20260506203614 27 230 22.5 27.4 0.00 0.00 0.00 46 995.4
20260506203110 27 183 16.1 19.3 0.00 0.00 0.00 45 995.4
20260506202608 26 213 16.1 19.3 0.00 0.00 0.00 46 995.4
20260506202104 27 272 12.9 16.1 0.00 0.00 0.00 44 995.8
20260506201601 27 195 16.1 19.3 0.00 0.00 0.00 45 995.8
20260506201058 27 191 11.3 16.1 0.00 0.00 0.00 46 995.8
20260506200554 27 186 17.7 24.1 0.00 0.00 0.00 48 995.8
20260506200051 27 181 19.3 24.1 0.00 0.00 0.00 49 995.8
20260506195547 27 214 17.7 24.1 0.00 0.00 0.00 43 996.1
20260506195044 28 160 9.7 11.3 0.00 0.00 0.00 42 996.1
20260506194542 28 159 11.3 11.3 0.00 0.00 0.00 41 996.1
20260506194038 28 214 9.7 11.3 0.00 0.00 0.00 42 996.1
20260506193536 28 228 14.5 19.3 0.00 0.00 0.00 42 996.1
20260506193033 28 227 11.3 11.3 0.00 0.00 0.00 41 996.1
20260506192529 29 187 12.9 16.1 0.00 0.00 0.00 41 996.1
20260506192025 29 172 16.1 16.1 0.00 0.00 0.00 40 996.1
20260506191522 29 225 11.3 16.1 0.00 0.00 0.00 36 996.1
20260506191018 29 191 11.3 16.1 0.00 0.00 0.00 36 996.1
20260506190515 29 217 1.6 4.8 0.00 0.00 0.00 36 996.4
20260506190012 29 191 14.5 16.1 0.00 0.00 0.00 36 996.1
20260506185510 29 196 6.4 8.0 0.00 0.00 0.00 39 996.4
20260506185006 29 189 12.9 16.1 0.00 0.00 0.00 38 996.4
20260506184504 29 189 6.4 8.0 0.00 0.00 0.00 38 996.4
20260506184001 29 179 8.0 11.3 0.00 0.00 0.00 38 996.4
20260506183456 29 274 9.7 11.3 0.00 0.00 0.00 39 996.8
20260506182953 29 173 1.6 4.8 0.00 0.00 0.00 36 996.4
20260506182450 28 123 0.0 4.8 0.00 0.00 0.00 40 996.4
20260506181947 28 142 6.4 8.0 0.00 0.00 0.00 41 996.4
20260506181446 28 269 9.7 16.1 0.00 0.00 0.00 40 996.8
20260506180942 28 194 1.6 4.8 0.00 0.00 0.00 43 996.4
20260506180438 28 178 6.4 11.3 0.00 0.00 0.00 42 996.4
20260506175935 27 271 3.2 4.8 0.00 0.00 0.00 45 996.8
20260506175432 27 277 4.8 8.0 0.00 0.00 0.00 50 996.4
20260506174928 28 267 6.4 8.0 0.00 0.00 0.00 51 996.8
20260506174427 28 194 9.7 11.3 0.00 0.00 0.00 50 996.4
20260506173923 28 206 6.4 8.0 0.00 0.00 0.00 50 996.4
20260506173420 27 305 3.2 8.0 0.00 0.00 0.00 52 996.8
20260506172917 27 298 9.7 11.3 0.00 0.00 0.00 51 996.4
20260506172414 28 129 0.0 0.0 0.00 0.00 0.00 53 996.4
20260506171911 28 165 3.2 8.0 0.00 0.00 0.00 52 996.4
20260506171408 28 80 0.0 4.8 0.00 0.00 0.00 54 996.4
20260506170906 28 54 1.6 4.8 0.00 0.00 0.00 53 996.1
20260506170401 28 75 6.4 11.3 0.00 0.00 0.00 52 996.1
20260506165900 28 69 4.8 8.0 0.00 0.00 0.00 51 996.4
20260506165358 28 82 0.0 0.0 0.00 0.00 0.00 49 996.8
20260506164849 28 6 3.2 4.8 0.00 0.00 0.00 46 996.4
20260506164345 28 189 1.6 4.8 0.00 0.00 0.00 51 996.4
20260506163844 27 189 4.8 4.8 0.00 0.00 0.00 50 996.1
20260506163338 27 155 1.6 4.8 0.00 0.00 0.00 50 996.4
20260506162833 27 196 6.4 8.0 0.00 0.00 0.00 52 996.4
20260506162331 27 282 9.7 11.3 0.00 0.00 0.00 51 996.4
20260506161829 27 267 0.0 0.0 0.00 0.00 0.00 52 996.1
20260506161326 27 293 8.0 11.3 0.00 0.00 0.00 52 996.1
20260506160823 27 187 8.0 11.3 0.00 0.00 0.00 49 996.1
20260506160319 27 194 6.4 8.0 0.00 0.00 0.00 50 996.4
20260506155818 27 321 6.4 8.0 0.00 0.00 0.00 51 996.4
20260506155315 27 310 4.8 8.0 0.00 0.00 0.00 50 996.1
20260506153427 28 68 0.0 0.0 0.00 0.00 0.00 47 996.1
20260506152925 27 295 1.6 8.0 0.00 0.00 0.00 44 996.1
20260506152421 27 166 3.2 4.8 0.00 0.00 0.00 44 995.8
20260506151920 27 139 0.0 0.0 0.00 0.00 0.00 47 995.8
20260506151417 27 54 1.6 4.8 0.00 0.00 0.00 48 995.8
20260506150914 26 73 4.8 8.0 0.00 0.00 0.00 45 995.4
20260506150410 26 146 1.6 4.8 0.00 0.00 0.00 44 995.4
20260506145908 26 79 0.0 4.8 0.00 0.00 0.00 43 995.4
20260506145403 26 109 0.0 0.0 0.00 0.00 0.00 46 995.4
20260506144901 26 238 1.6 4.8 0.00 0.00 0.00 49 995.4
20260506144357 26 187 4.8 8.0 0.00 0.00 0.00 48 995.8
20260506143856 26 203 4.8 8.0 0.00 0.00 0.00 50 995.8
20260506143353 26 231 8.0 8.0 0.00 0.00 0.00 45 995.4
20260506142851 26 178 4.8 8.0 0.00 0.00 0.00 43 995.4
20260506142349 26 353 0.0 0.0 0.00 0.00 0.00 46 995.1
20260506141847 26 12 0.0 4.8 0.00 0.00 0.00 44 995.4
20260506141344 26 283 0.0 0.0 0.00 0.00 0.00 46 995.1
20260506140842 26 236 0.0 4.8 0.00 0.00 0.00 47 995.4
20260506140339 26 163 0.0 4.8 0.00 0.00 0.00 49 995.4
20260506135836 26 197 4.8 8.0 0.00 0.00 0.00 47 995.1
20260506135333 26 187 0.0 4.8 0.00 0.00 0.00 48 995.1
20260506134829 26 26 0.0 0.0 0.00 0.00 0.00 47 995.1
20260506134325 25 99 0.0 0.0 0.00 0.00 0.00 44 995.1
20260506133823 25 44 0.0 0.0 0.00 0.00 0.00 41 994.7
20260506133319 24 100 0.0 0.0 0.00 0.00 0.00 47 994.7
20260506132816 23 122 0.0 0.0 0.00 0.00 0.00 47 994.7
20260506132313 23 115 0.0 0.0 0.00 0.00 0.00 44 994.7
20260506131811 23 130 0.0 0.0 0.00 0.00 0.00 43 994.7
20260506131307 23 114 0.0 0.0 0.00 0.00 0.00 42 994.7
20260506130804 22 186 0.0 0.0 0.00 0.00 0.00 42 994.7
20260506130301 23 152 0.0 0.0 0.00 0.00 0.00 43 994.7
20260506125759 23 129 0.0 0.0 0.00 0.00 0.00 47 994.7
20260506125256 23 68 0.0 0.0 0.00 0.00 0.00 48 994.7
20260506124755 23 269 0.0 4.8 0.00 0.00 0.00 48 994.7
20260506124252 24 6 6.4 8.0 0.00 0.00 0.00 45 994.7
20260506123749 24 42 1.6 4.8 0.00 0.00 0.00 42 994.7
20260506123248 25 73 0.0 0.0 0.00 0.00 0.00 41 994.4
20260506122744 25 51 6.4 8.0 0.00 0.00 0.00 37 994.4
20260506122241 25 132 1.6 4.8 0.00 0.00 0.00 35 994.1
20260506121740 24 235 1.6 4.8 0.00 0.00 0.00 35 994.1
20260506121236 24 182 4.8 8.0 0.00 0.00 0.00 36 994.1
20260506120733 24 87 1.6 4.8 0.00 0.00 0.00 35 994.1
20260506120231 23 177 1.6 4.8 0.00 0.00 0.00 37 993.7
20260506115729 23 80 0.0 0.0 0.00 0.00 0.00 39 994.1
20260506115227 23 263 0.0 4.8 0.00 0.00 0.00 41 993.7
20260506114724 23 53 0.0 0.0 0.00 0.00 0.00 43 993.7
20260506114222 23 136 4.8 4.8 0.00 0.00 0.00 42 993.7
20260506113720 23 280 11.3 16.1 0.00 0.00 0.00 43 993.7
20260506113217 23 189 11.3 16.1 0.00 0.00 0.00 43 994.1
20260506112713 23 236 11.3 11.3 0.00 0.00 0.00 43 993.7
20260506112211 23 186 11.3 11.3 0.00 0.00 0.00 43 993.7
20260506111708 24 108 3.2 8.0 0.00 0.00 0.00 43 993.7
20260506111207 24 227 8.0 11.3 0.00 0.00 0.00 42 994.1
20260506110703 24 193 12.9 16.1 0.00 0.00 0.00 41 994.1
20260506110201 25 197 4.8 8.0 0.00 0.00 0.00 39 993.7
20260506105657 25 180 9.7 11.3 0.00 0.00 0.00 37 993.7
20260506105154 25 131 12.9 16.1 0.00 0.00 0.00 37 993.4
20260506104652 25 210 14.5 16.1 0.00 0.00 0.00 41 993.7
20260506104149 25 283 12.9 19.3 0.00 0.00 0.00 44 993.7
20260506103646 24 197 6.4 11.3 0.00 0.00 0.00 43 993.7
20260506103143 23 206 8.0 11.3 0.00 0.00 0.00 44 993.7
20260506102642 23 278 6.4 8.0 0.00 0.00 0.00 46 993.7
20260506102139 23 304 9.7 11.3 0.00 0.00 0.00 47 993.7
20260506101635 23 288 9.7 11.3 0.00 0.00 0.00 51 993.7
20260506101132 22 294 4.8 8.0 0.00 0.00 0.00 54 993.7
20260506100631 22 76 0.0 0.0 0.00 0.00 0.00 52 993.4
20260506100128 22 333 1.6 4.8 0.00 0.00 0.00 52 993.7
20260506095627 22 89 0.0 0.0 0.00 0.00 0.00 51 993.7
20260506095123 22 85 0.0 0.0 0.00 0.00 0.00 51 993.7
20260506094621 22 119 1.6 4.8 0.00 0.00 0.00 51 993.7
20260506094118 22 80 0.0 4.8 0.00 0.00 0.00 51 993.7
20260506093616 22 78 0.0 0.0 0.00 0.00 0.00 52 993.7
20260506093113 22 74 0.0 0.0 0.00 0.00 0.00 52 993.7
20260506092611 22 91 0.0 0.0 0.00 0.00 0.00 52 993.7
20260506092108 22 90 0.0 0.0 0.00 0.00 0.00 52 993.7
20260506091606 22 94 0.0 0.0 0.00 0.00 0.00 51 994.1
20260506091103 23 81 0.0 0.0 0.00 0.00 0.00 51 994.1
20260506090601 23 87 1.6 4.8 0.00 0.00 0.00 52 994.1
20260506090057 23 73 0.0 4.8 0.00 0.00 0.00 52 994.1
20260506085554 23 127 0.0 0.0 0.00 0.00 0.00 52 994.1
20260506085050 23 56 0.0 0.0 0.00 0.00 0.00 52 994.4
20260506084547 23 97 0.0 0.0 0.00 0.00 0.00 52 994.1
20260506084044 22 87 0.0 0.0 0.00 0.00 0.00 52 994.1
20260506083541 22 88 0.0 4.8 0.00 0.00 0.00 53 994.1
20260506083038 22 82 0.0 0.0 0.00 0.00 0.00 52 994.1
20260506082535 22 80 0.0 0.0 0.00 0.00 0.00 52 994.1
20260506082031 22 76 0.0 0.0 0.00 0.00 0.00 52 994.1
20260506081529 22 61 0.0 0.0 0.00 0.00 0.00 52 994.1
20260506081026 22 90 0.0 0.0 0.00 0.00 0.00 53 994.1
20260506080524 22 64 0.0 0.0 0.00 0.00 0.00 52 994.1
20260506073507 23 64 0.0 0.0 0.00 0.00 0.00 53 994.4
20260506073004 23 44 0.0 0.0 0.00 0.00 0.00 53 994.4
20260506072501 23 76 0.0 0.0 0.00 0.00 0.00 52 994.4
20260506071959 23 75 0.0 0.0 0.00 0.00 0.00 52 994.4
20260506071457 23 74 0.0 0.0 0.00 0.00 0.00 53 994.4
20260506070953 23 74 0.0 0.0 0.00 0.00 0.00 53 994.7
20260506070450 23 73 0.0 0.0 0.00 0.00 0.00 53 994.7
20260506062428 23 100 0.0 0.0 0.00 0.00 0.00 52 995.1
20260506061924 23 91 0.0 0.0 0.00 0.00 0.00 52 995.1
20260506061420 23 79 0.0 0.0 0.00 0.00 0.00 52 995.4
20260506060919 24 70 0.0 0.0 0.00 0.00 0.00 52 995.1
20260506060417 24 74 0.0 0.0 0.00 0.00 0.00 52 995.4
20260506051348 25 10 1.6 4.8 0.00 0.00 0.00 50 995.1
20260506050846 25 36 0.0 0.0 0.00 0.00 0.00 49 995.1
20260506050343 25 37 0.0 4.8 0.00 0.00 0.00 50 995.4
20260506044833 25 21 0.0 0.0 0.00 0.00 0.00 52 995.1
20260506044331 25 332 0.0 0.0 0.00 0.00 0.00 52 994.7
20260506043828 25 325 0.0 0.0 0.00 0.00 0.00 52 995.1
20260506043325 25 333 0.0 0.0 0.00 0.00 0.00 52 994.7
20260506042824 25 309 3.2 4.8 0.00 0.00 0.00 53 995.1
20260506042323 25 286 0.0 4.8 0.00 0.00 0.00 53 994.7
20260506041821 25 330 0.0 0.0 0.00 0.00 0.00 53 994.7
20260506041317 25 301 3.2 4.8 0.00 0.00 0.00 53 994.7
20260506040815 25 13 0.0 0.0 0.00 0.00 0.00 53 994.7
20260506040312 25 323 0.0 0.0 0.00 0.00 0.00 53 994.4
20260506035808 25 238 0.0 0.0 0.00 0.00 0.00 53 994.7
20260506035306 25 183 0.0 0.0 0.00 0.00 0.00 52 994.7
20260506034803 25 269 1.6 4.8 0.00 0.00 0.00 52 994.7
20260506034300 25 137 0.0 0.0 0.00 0.00 0.00 52 994.4
20260506033756 25 272 0.0 0.0 0.00 0.00 0.00 52 994.7
20260506033253 25 180 1.6 4.8 0.00 0.00 0.00 52 994.4
20260506032750 25 164 0.0 0.0 0.00 0.00 0.00 52 994.4
20260506032247 25 263 0.0 4.8 0.00 0.00 0.00 52 994.4
20260506031744 25 251 0.0 0.0 0.00 0.00 0.00 51 994.4
20260506031241 25 294 0.0 0.0 0.00 0.00 0.00 51 994.4
20260506030739 25 207 0.0 0.0 0.00 0.00 0.00 51 994.1
20260506030237 25 271 0.0 4.8 0.00 0.00 0.00 50 994.1
20260506025733 25 195 4.8 8.0 0.00 0.00 0.00 50 994.1
20260506025230 25 181 0.0 0.0 0.00 0.00 0.00 50 994.1
20260506024727 25 206 1.6 4.8 0.00 0.00 0.00 50 994.1
20260506024223 25 219 1.6 4.8 0.00 0.00 0.00 50 994.1
20260506023719 25 192 4.8 8.0 0.00 0.00 0.00 50 993.7
20260506023216 25 201 4.8 8.0 0.00 0.00 0.00 50 994.1
20260506022713 25 140 1.6 4.8 0.00 0.00 0.00 51 994.1
20260506022211 25 229 4.8 8.0 0.00 0.00 0.00 50 993.7
20260506021709 25 182 4.8 8.0 0.00 0.00 0.00 50 994.1
20260506021205 25 176 6.4 8.0 0.00 0.00 0.00 50 993.7
20260506020702 25 156 0.0 0.0 0.00 0.00 0.00 51 994.1
20260506020200 25 66 0.0 0.0 0.00 0.00 0.00 52 994.1